Tracking 22842 objects as of 15-Apr-2021
HD Live streaming from Space Station
objects crossing your sky now

EXPLORER 30

Track EXPLORER 30 now!
10-day predictions
EXPLORER 30 is classified as:


NORAD ID: 1738
Int'l Code: 1965-093A
Perigee: 664.3 km
Apogee: 865.3 km
Inclination: 59.7 °
Period: 100.0 minutes
Semi major axis: 7135 km
RCS: 0.3725 m2 (medium)
Launch date: November 19, 1965
Source: United States (US)
Launch site: WALLOPS ISLAND (WLPIS)
aabbcc
Your satellite tracking list
Your tracking list is empty




NASA's NSSDC Master Catalog

Two Line Element Set (TLE):
1 01738U 65093A   21104.53006896 -.00000090  00000-0  19371-4 0  9992
2 01738  59.7074 184.0053 0140843 106.0786 255.5811 14.40252537884136
Source of the keplerian elements: AFSPC